• In Belarus
  • List of Countries
  • For 7 days
  • Water Temperature
  • Weather Map
  • Weather Widgets
  • user-avatar
    Login

    Hourly Weather Ganja

    Today, 25 May, Monday

    Time Temperature Precipitation Wind Pressure Humidity
    00:00 +14°C° 0.1 mm 2 mps 728 mmHg 87%
    01:00 +14°C° 0 mm 2 mps 728 mmHg 87%
    02:00 +14°C° 0 mm 2 mps 728 mmHg 88%
    03:00 +14°C° 0 mm 1 mps 728 mmHg 88%
    04:00 +14°C° 0 mm 2 mps 728 mmHg 87%
    05:00 +14°C° 0 mm 2 mps 728 mmHg 86%
    06:00 +13°C° 0 mm 3 mps 728 mmHg 85%
    07:00 +14°C° 0 mm 4 mps 727 mmHg 79%
    08:00 +16°C° 0 mm 5 mps 727 mmHg 72%
    09:00 +17°C° 0 mm 6 mps 727 mmHg 66%
    10:00 +20°C° 0.1 mm 7 mps 727 mmHg 62%
    11:00 +21°C° 0.1 mm 7 mps 726 mmHg 58%
    12:00 +22°C° 0.1 mm 8 mps 726 mmHg 54%
    13:00 +21°C° 0.1 mm 8 mps 726 mmHg 58%
    14:00 +20°C° 0.1 mm 8 mps 725 mmHg 61%
    15:00 +20°C° 0.1 mm 8 mps 724 mmHg 64%
    16:00 +20°C° 0.2 mm 7 mps 724 mmHg 64%
    17:00 +20°C° 0.2 mm 6 mps 724 mmHg 64%
    18:00 +20°C° 0.2 mm 5 mps 723 mmHg 64%
    19:00 +19°C° 0.1 mm 4 mps 724 mmHg 68%
    20:00 +17°C° 0.1 mm 3 mps 724 mmHg 72%
    21:00 +16°C° 0.1 mm 2 mps 724 mmHg 76%
    22:00 +16°C° 0 mm 2 mps 725 mmHg 77%
    23:00 +15°C° 0 mm 2 mps 725 mmHg 79%

    Tomorrow, 26 May, Tuesday

    Time Temperature Precipitation Wind Pressure Humidity
    00:00 +15°C° 0 mm 2 mps 725 mmHg 80%
    01:00 +14°C° 0 mm 3 mps 725 mmHg 80%
    02:00 +14°C° 0 mm 4 mps 725 mmHg 79%
    03:00 +13°C° 0 mm 5 mps 726 mmHg 79%
    04:00 +14°C° 0 mm 5 mps 726 mmHg 75%
    05:00 +15°C° 0 mm 6 mps 726 mmHg 70%
    06:00 +15°C° 0 mm 6 mps 726 mmHg 66%
    07:00 +17°C° 0 mm 6 mps 727 mmHg 63%
    08:00 +19°C° 0 mm 6 mps 727 mmHg 59%
    09:00 +21°C° 0 mm 6 mps 727 mmHg 56%
    10:00 +22°C° 0 mm 6 mps 727 mmHg 53%
    11:00 +23°C° 0 mm 6 mps 727 mmHg 50%
    12:00 +26°C° 0 mm 5 mps 727 mmHg 47%
    13:00 +26°C° 0 mm 5 mps 727 mmHg 45%
    14:00 +27°C° 0 mm 4 mps 727 mmHg 44%
    15:00 +27°C° 0 mm 4 mps 727 mmHg 42%
    16:00 +27°C° 0 mm 3 mps 727 mmHg 44%
    17:00 +27°C° 0 mm 2 mps 728 mmHg 47%
    18:00 +26°C° 0 mm 1 mps 728 mmHg 49%
    19:00 +24°C° 0 mm 2 mps 728 mmHg 54%
    20:00 +22°C° 0 mm 3 mps 729 mmHg 58%
    21:00 +20°C° 0 mm 4 mps 729 mmHg 62%
    22:00 +19°C° 0 mm 4 mps 729 mmHg 65%
    23:00 +19°C° 0 mm 4 mps 729 mmHg 67%

    Day after tomorrow, 27 May, Wednesday

    Time Temperature Precipitation Wind Pressure Humidity
    00:00 +18°C° 0 mm 4 mps 729 mmHg 69%
    01:00 +17°C° 0 mm 3 mps 729 mmHg 71%
    02:00 +17°C° 0 mm 3 mps 729 mmHg 73%
    03:00 +16°C° 0 mm 2 mps 729 mmHg 75%
    04:00 +17°C° 0 mm 2 mps 729 mmHg 75%
    05:00 +18°C° 0 mm 1 mps 730 mmHg 75%
    06:00 +18°C° 0 mm 1 mps 730 mmHg 76%
    07:00 +19°C° 0 mm 1 mps 730 mmHg 72%
    08:00 +19°C° 0 mm 2 mps 730 mmHg 69%
    09:00 +21°C° 0 mm 2 mps 730 mmHg 66%
    10:00 +23°C° 0 mm 2 mps 729 mmHg 63%
    11:00 +24°C° 0 mm 2 mps 729 mmHg 59%
    12:00 +25°C° 0 mm 2 mps 729 mmHg 55%
    13:00 +26°C° 0 mm 2 mps 728 mmHg 53%
    14:00 +26°C° 0 mm 2 mps 728 mmHg 51%
    15:00 +27°C° 0 mm 2 mps 728 mmHg 48%
    16:00 +27°C° 0 mm 2 mps 728 mmHg 50%
    17:00 +27°C° 0 mm 1 mps 728 mmHg 51%
    18:00 +26°C° 0 mm 1 mps 728 mmHg 52%
    19:00 +25°C° 0 mm 1 mps 728 mmHg 57%
    20:00 +23°C° 0 mm 1 mps 728 mmHg 61%
    21:00 +22°C° 0 mm 1 mps 728 mmHg 66%
    22:00 +21°C° 0 mm 1 mps 728 mmHg 67%
    23:00 +21°C° 0 mm 1 mps 728 mmHg 67%

    28 May, Thursday

    Time Temperature Precipitation Wind Pressure Humidity
    00:00 +21°C° 0 mm 1 mps 728 mmHg 68%
    01:00 +20°C° 0 mm 1 mps 727 mmHg 68%
    02:00 +20°C° 0 mm 1 mps 727 mmHg 69%
    03:00 +19°C° 0 mm 1 mps 727 mmHg 69%
    04:00 +20°C° 0 mm 1 mps 727 mmHg 68%
    05:00 +21°C° 0 mm 1 mps 727 mmHg 67%
    06:00 +22°C° 0 mm 1 mps 727 mmHg 65%
    07:00 +23°C° 0 mm 1 mps 727 mmHg 63%
    08:00 +24°C° 0 mm 1 mps 726 mmHg 60%
    09:00 +25°C° 0 mm 2 mps 726 mmHg 58%
    10:00 +27°C° 0 mm 2 mps 726 mmHg 55%
    11:00 +28°C° 0 mm 2 mps 725 mmHg 51%
    12:00 +29°C° 0 mm 2 mps 725 mmHg 48%
    13:00 +30°C° 0 mm 2 mps 725 mmHg 46%
    14:00 +30°C° 0 mm 2 mps 724 mmHg 44%
    15:00 +31°C° 0 mm 2 mps 724 mmHg 43%
    16:00 +30°C° 0 mm 2 mps 724 mmHg 45%
    17:00 +30°C° 0 mm 2 mps 724 mmHg 47%
    18:00 +30°C° 0 mm 1 mps 724 mmHg 49%
    19:00 +28°C° 0 mm 2 mps 724 mmHg 51%
    20:00 +27°C° 0 mm 2 mps 724 mmHg 54%
    21:00 +26°C° 0 mm 2 mps 724 mmHg 56%
    22:00 +25°C° 0 mm 2 mps 724 mmHg 56%
    23:00 +24°C° 0 mm 2 mps 724 mmHg 57%

    29 May, Friday

    Time Temperature Precipitation Wind Pressure Humidity
    00:00 +24°C° 0 mm 3 mps 723 mmHg 57%
    01:00 +23°C° 0 mm 2 mps 723 mmHg 57%
    02:00 +21°C° 0 mm 2 mps 723 mmHg 57%
    03:00 +22°C° 0 mm 1 mps 723 mmHg 57%
    04:00 +22°C° 0 mm 1 mps 723 mmHg 58%
    05:00 +23°C° 0 mm 1 mps 722 mmHg 58%
    06:00 +23°C° 0 mm 1 mps 722 mmHg 59%
    07:00 +24°C° 0 mm 1 mps 722 mmHg 58%
    08:00 +26°C° 0 mm 1 mps 722 mmHg 56%
    09:00 +27°C° 0 mm 1 mps 722 mmHg 54%
    10:00 +28°C° 0 mm 2 mps 721 mmHg 52%
    11:00 +29°C° 0 mm 2 mps 721 mmHg 49%
    12:00 +31°C° 0 mm 2 mps 720 mmHg 46%
    13:00 +31°C° 0.1 mm 3 mps 720 mmHg 45%
    14:00 +33°C° 0.1 mm 3 mps 720 mmHg 43%
    15:00 +34°C° 0.1 mm 3 mps 719 mmHg 41%
    16:00 +33°C° 0.1 mm 4 mps 719 mmHg 44%
    17:00 +33°C° 0.1 mm 4 mps 719 mmHg 47%
    18:00 +32°C° 0.1 mm 4 mps 719 mmHg 50%
    19:00 +29°C° 0.2 mm 3 mps 720 mmHg 53%
    20:00 +28°C° 0.2 mm 3 mps 720 mmHg 56%
    21:00 +26°C° 0.2 mm 2 mps 721 mmHg 58%
    22:00 +25°C° 0 mm 2 mps 721 mmHg 59%
    23:00 +24°C° 0 mm 2 mps 721 mmHg 59%

    30 May, Saturday

    Time Temperature Precipitation Wind Pressure Humidity
    00:00 +24°C° 0 mm 1 mps 720 mmHg 60%
    01:00 +23°C° 0 mm 2 mps 720 mmHg 60%
    02:00 +22°C° 0 mm 4 mps 720 mmHg 59%
    03:00 +21°C° 0 mm 5 mps 720 mmHg 59%
    04:00 +22°C° 0 mm 5 mps 720 mmHg 58%
    05:00 +22°C° 0 mm 5 mps 720 mmHg 58%
    06:00 +22°C° 0 mm 6 mps 721 mmHg 58%
    07:00 +23°C° 0 mm 6 mps 721 mmHg 56%
    08:00 +26°C° 0 mm 6 mps 721 mmHg 54%
    09:00 +27°C° 0 mm 6 mps 721 mmHg 52%
    10:00 +28°C° 0.1 mm 6 mps 721 mmHg 49%
    11:00 +29°C° 0.1 mm 7 mps 721 mmHg 46%
    12:00 +30°C° 0.1 mm 7 mps 721 mmHg 43%
    13:00 +30°C° 0.3 mm 7 mps 721 mmHg 42%
    14:00 +30°C° 0.3 mm 6 mps 721 mmHg 41%
    15:00 +30°C° 0.3 mm 6 mps 721 mmHg 40%
    16:00 +29°C° 0.1 mm 6 mps 722 mmHg 43%
    17:00 +28°C° 0.1 mm 6 mps 722 mmHg 46%
    18:00 +27°C° 0.1 mm 6 mps 722 mmHg 49%
    19:00 +26°C° 0 mm 6 mps 723 mmHg 49%
    20:00 +24°C° 0 mm 7 mps 724 mmHg 49%
    21:00 +22°C° 0 mm 7 mps 725 mmHg 49%
    22:00 +22°C° 0 mm 7 mps 725 mmHg 50%
    23:00 +21°C° 0 mm 6 mps 725 mmHg 52%
    Show more